TimeEST,TemperatureF,Dew PointF,Humidity,Sea Level PressureIn,VisibilityMPH,Wind Direction,Wind SpeedMPH,Gust SpeedMPH,PrecipitationIn,Events,Conditions,WindDirDegrees,DateUTC
12:55 AM,34.9,19.0,52,30.14,10.0,NW,8.1,-,N/A,,Clear,310,2013-03-08 05:55:00
1:55 AM,33.8,19.2,55,30.15,10.0,Variable,5.8,-,N/A,,Clear,0,2013-03-08 06:55:00
2:55 AM,33.6,19.2,56,30.14,10.0,NW,4.6,21.9,N/A,,Clear,310,2013-03-08 07:55:00
3:55 AM,33.1,18.9,56,30.14,10.0,Calm,Calm,-,N/A,,Scattered Clouds,0,2013-03-08 08:55:00
4:55 AM,33.6,18.3,54,30.13,10.0,NNW,12.7,21.9,N/A,,Overcast,340,2013-03-08 09:55:00
5:55 AM,33.6,18.7,54,30.14,10.0,NNW,16.1,33.4,N/A,,Mostly Cloudy,340,2013-03-08 10:55:00
6:55 AM,32.5,20.1,60,30.16,10.0,North,15.0,24.2,N/A,,Mostly Cloudy,350,2013-03-08 11:55:00
7:55 AM,32.7,21.2,63,30.17,10.0,North,16.1,23.0,N/A,,Partly Cloudy,350,2013-03-08 12:55:00
8:55 AM,34.7,20.3,56,30.18,10.0,North,8.1,20.7,N/A,,Partly Cloudy,350,2013-03-08 13:55:00
9:55 AM,35.8,19.8,52,30.17,10.0,North,18.4,33.4,N/A,,Mostly Cloudy,350,2013-03-08 14:55:00
10:55 AM,38.7,20.5,48,30.18,10.0,NW,19.6,42.6,N/A,,Partly Cloudy,320,2013-03-08 15:55:00
11:55 AM,41.9,21.0,43,30.18,10.0,North,11.5,27.6,N/A,,Scattered Clouds,360,2013-03-08 16:55:00
12:55 PM,42.3,21.9,44,30.16,10.0,NW,16.1,25.3,N/A,,Overcast,310,2013-03-08 17:55:00
1:55 PM,44.6,22.5,42,30.16,10.0,NNW,11.5,25.3,N/A,,Mostly Cloudy,340,2013-03-08 18:55:00
2:55 PM,44.8,23.2,43,30.17,10.0,WNW,11.5,25.3,N/A,,Overcast,300,2013-03-08 19:55:00
3:55 PM,44.8,23.5,43,30.18,10.0,North,17.3,26.5,N/A,,Clear,350,2013-03-08 20:55:00
4:55 PM,45.3,23.2,42,30.21,10.0,North,8.1,19.6,N/A,,Overcast,350,2013-03-08 21:55:00
5:55 PM,43.3,22.5,44,30.23,10.0,NNE,9.2,-,N/A,,Partly Cloudy,30,2013-03-08 22:55:00
6:55 PM,42.3,22.3,45,30.26,10.0,Variable,4.6,-,N/A,,Clear,0,2013-03-08 23:55:00
7:55 PM,42.3,21.9,44,30.27,10.0,Variable,4.6,-,N/A,,Clear,0,2013-03-09 00:55:00
8:55 PM,40.6,21.0,46,30.28,10.0,ESE,6.9,17.3,N/A,,Scattered Clouds,110,2013-03-09 01:55:00
9:55 PM,38.7,19.4,46,30.28,10.0,NNW,16.1,29.9,N/A,,Partly Cloudy,340,2013-03-09 02:55:00
10:55 PM,37.8,18.9,47,30.30,10.0,North,13.8,24.2,N/A,,Clear,10,2013-03-09 03:55:00
11:55 PM,36.7,18.7,48,30.30,10.0,North,6.9,-,N/A,,Clear,360,2013-03-09 04:55:00